CZ-6A DEB, 54531

Orbit data source: Space-Track

CZ-6A DEB, 54531 is space debris in SSO originally from a launch on Fri, 11 Nov 2022 UTC launched from the Taiyaun Space Center, China (TSC). Debris objects in space refer to the collection of defunct objects orbiting the Earth. Examples of debris include non-operational satellites, rocket bodies, and fragments generated from explosions, collisions, or faulty payload assembly.

Loading next visibility...
Identifier
54531, 2022-151KK
Orbit
SSO
Country
Flag of CNCN / PRC
Related business
Manufacturer
SAST
Mission
Spacecraft
Bus & Motor
Unknown
Mass
Unknown
Launch date (UTC)
2022-11-11 (3 years ago)
Launch vehicle
Unknown
Launch site
Taiyaun Space Center, China (TSC)
Object type
Payload
Rocket body
Debris
Shape & HBR
Unknown shape, 0.1 m
Radar Cross Section
Small (<0.1 m²)

Expand to show TLE details & history
Last TLE update: 1 day ago

TLE from 1 day ago
0 CZ-6A DEB
1 54531U 22151KK  25354.13398934  .00035383  00000-0  29995-2 0  9996
2 54531  98.5764  52.7089 0027705  40.9820 319.3475 14.97561983 71973
Epoch: 2025-12-20T03:12Z
TLE epoch observation values (Epoch: 2025-12-20T03:12:56.678Z)
Latitude
-0.00002°
Longitude
-84.49241°
Altitude
562.862 km
Speed
7.588 km/s
True Right ascension
03h 30m 50s
True Declination
0° 00' 00"
Sunlit
Object was in full shadow at epoch
Visualization orbit readout
Latitude
Unknown
Longitude
Unknown
Altitude
Unknown
Speed
Unknown
Apparent Right ascension
Unknown
Apparent Declination
Unknown
Sunlit
N/A
Visualization observer readout
Local Sidereal Time
10:40:36
Azimuth
Unknown
Elevation
Unknown
Doppler factor
Unknown
Orbital elements
Apogee altitude
590.735 km
Perigee altitude
552.227 km
Semi-major axis
6,949.618 km
Eccentricity
0.00277
Inclination
98.5764°
RAAN
52.7089°
Arg. of periapsis
40.982°
True anomaly
319.14013°
Mean anomaly
319.3475°
Eccentric anomaly
319.24387°
Mean motion
3.74629 °/min
Orbital period
96.09 mins
BSTAR
0.0029995
Loading maneuver chart data...
Computing Atmospheric mass density...
Loading historical data...
Loading historical data...
Loading historical data...
Loading historical data...
Loading historical data...
Loading historical data...
Loading historical data...

Documentation

Showing up to 5 results
|